Hourly Weather Rudka

Today, 1 August, Sunday

Time Temperature Precipitation Wind Pressure Humidity
00:00 +18°C° 0 mm 3 mps 744 mmHg 94%
01:00 +18°C° 0 mm 3 mps 744 mmHg 95%
02:00 +17°C° 0 mm 2 mps 744 mmHg 96%
03:00 +17°C° 0 mm 2 mps 744 mmHg 96%
04:00 +17°C° 0 mm 2 mps 744 mmHg 96%
05:00 +17°C° 0 mm 2 mps 744 mmHg 96%
06:00 +18°C° 0 mm 2 mps 744 mmHg 91%
07:00 +20°C° 0 mm 2 mps 744 mmHg 87%
08:00 +21°C° 0 mm 2 mps 745 mmHg 82%
09:00 +24°C° 0 mm 2 mps 745 mmHg 74%
10:00 +26°C° 0 mm 1 mps 745 mmHg 66%
11:00 +27°C° 0 mm 1 mps 745 mmHg 58%
12:00 +28°C° 0 mm 1 mps 745 mmHg 54%
13:00 +29°C° 0 mm 2 mps 745 mmHg 49%
14:00 +30°C° 0 mm 2 mps 744 mmHg 45%
15:00 +30°C° 0 mm 2 mps 744 mmHg 47%
16:00 +29°C° 0 mm 2 mps 743 mmHg 48%
17:00 +29°C° 0 mm 2 mps 742 mmHg 49%
18:00 +27°C° 0 mm 2 mps 742 mmHg 57%
19:00 +25°C° 0 mm 2 mps 742 mmHg 66%
20:00 +23°C° 0 mm 2 mps 742 mmHg 74%
21:00 +23°C° 0.1 mm 2 mps 742 mmHg 76%
22:00 +21°C° 0.1 mm 2 mps 741 mmHg 77%
23:00 +21°C° 0.1 mm 2 mps 741 mmHg 79%

Tomorrow, 2 August, Monday

Time Temperature Precipitation Wind Pressure Humidity
00:00 +20°C° 1.2 mm 2 mps 741 mmHg 84%
01:00 +20°C° 1.2 mm 2 mps 740 mmHg 90%
02:00 +19°C° 1.2 mm 2 mps 740 mmHg 95%
03:00 +19°C° 0.1 mm 2 mps 740 mmHg 95%
04:00 +19°C° 0.1 mm 2 mps 739 mmHg 96%
05:00 +18°C° 0.1 mm 2 mps 739 mmHg 96%
06:00 +19°C° 0 mm 3 mps 739 mmHg 93%
07:00 +20°C° 0 mm 4 mps 739 mmHg 90%
08:00 +21°C° 0 mm 5 mps 739 mmHg 87%
09:00 +21°C° 0.1 mm 5 mps 740 mmHg 84%
10:00 +21°C° 0.1 mm 5 mps 740 mmHg 81%
11:00 +21°C° 0.1 mm 6 mps 741 mmHg 78%
12:00 +21°C° 0.1 mm 6 mps 741 mmHg 78%
13:00 +20°C° 0.1 mm 6 mps 742 mmHg 78%
14:00 +18°C° 0.1 mm 7 mps 743 mmHg 79%
15:00 +19°C° 0 mm 6 mps 743 mmHg 81%
16:00 +17°C° 0 mm 5 mps 744 mmHg 83%
17:00 +16°C° 0 mm 5 mps 744 mmHg 85%
18:00 +17°C° 0 mm 4 mps 744 mmHg 86%
19:00 +17°C° 0 mm 4 mps 745 mmHg 86%
20:00 +17°C° 0 mm 4 mps 745 mmHg 87%
21:00 +16°C° 0 mm 3 mps 745 mmHg 90%
22:00 +14°C° 0 mm 3 mps 745 mmHg 92%
23:00 +14°C° 0 mm 3 mps 745 mmHg 95%

Day after tomorrow, 3 August, Tuesday

Time Temperature Precipitation Wind Pressure Humidity
00:00 +14°C° 0 mm 3 mps 746 mmHg 95%
01:00 +13°C° 0 mm 3 mps 746 mmHg 95%
02:00 +14°C° 0 mm 2 mps 746 mmHg 95%
03:00 +13°C° 0 mm 3 mps 746 mmHg 95%
04:00 +13°C° 0 mm 3 mps 746 mmHg 95%
05:00 +12°C° 0 mm 3 mps 747 mmHg 95%
06:00 +14°C° 0 mm 3 mps 747 mmHg 86%
07:00 +15°C° 0 mm 4 mps 747 mmHg 77%
08:00 +18°C° 0 mm 4 mps 748 mmHg 68%
09:00 +19°C° 0 mm 4 mps 748 mmHg 61%
10:00 +21°C° 0 mm 5 mps 748 mmHg 55%
11:00 +22°C° 0 mm 5 mps 748 mmHg 48%
12:00 +22°C° 0 mm 5 mps 748 mmHg 47%
13:00 +22°C° 0 mm 5 mps 748 mmHg 46%
14:00 +23°C° 0 mm 5 mps 748 mmHg 45%
15:00 +22°C° 0 mm 5 mps 748 mmHg 49%
16:00 +21°C° 0 mm 4 mps 748 mmHg 52%
17:00 +21°C° 0 mm 4 mps 748 mmHg 55%
18:00 +19°C° 0 mm 3 mps 748 mmHg 61%
19:00 +18°C° 0 mm 3 mps 749 mmHg 67%
20:00 +17°C° 0 mm 2 mps 749 mmHg 72%
21:00 +16°C° 0 mm 2 mps 749 mmHg 74%
22:00 +15°C° 0 mm 2 mps 749 mmHg 76%
23:00 +15°C° 0 mm 2 mps 749 mmHg 78%

4 August, Wednesday

Time Temperature Precipitation Wind Pressure Humidity
00:00 +15°C° 0 mm 2 mps 749 mmHg 78%
01:00 +14°C° 0 mm 1 mps 749 mmHg 78%
02:00 +14°C° 0 mm 1 mps 749 mmHg 79%
03:00 +14°C° 0 mm 1 mps 750 mmHg 79%
04:00 +14°C° 0 mm 1 mps 750 mmHg 79%
05:00 +13°C° 0 mm 1 mps 750 mmHg 79%
06:00 +15°C° 0 mm 1 mps 750 mmHg 72%
07:00 +18°C° 0 mm 1 mps 750 mmHg 66%
08:00 +20°C° 0 mm 1 mps 750 mmHg 60%
09:00 +21°C° 0 mm 2 mps 750 mmHg 54%
10:00 +23°C° 0 mm 2 mps 750 mmHg 49%
11:00 +25°C° 0 mm 3 mps 750 mmHg 44%
12:00 +25°C° 0 mm 3 mps 750 mmHg 45%
13:00 +25°C° 0 mm 3 mps 749 mmHg 46%
14:00 +25°C° 0 mm 3 mps 749 mmHg 48%
15:00 +23°C° 0.6 mm 2 mps 749 mmHg 60%
16:00 +20°C° 0.6 mm 2 mps 749 mmHg 73%
17:00 +19°C° 0.6 mm 1 mps 749 mmHg 85%
18:00 +18°C° 0.2 mm 2 mps 749 mmHg 87%
19:00 +17°C° 0.2 mm 2 mps 749 mmHg 89%
20:00 +17°C° 0.2 mm 2 mps 748 mmHg 92%
21:00 +17°C° 0 mm 2 mps 748 mmHg 93%
22:00 +16°C° 0 mm 2 mps 748 mmHg 94%
23:00 +16°C° 0 mm 1 mps 748 mmHg 95%

5 August, Thursday

Time Temperature Precipitation Wind Pressure Humidity
00:00 +16°C° 0 mm 1 mps 748 mmHg 96%
01:00 +16°C° 0 mm 1 mps 748 mmHg 96%
02:00 +16°C° 0 mm 1 mps 748 mmHg 97%
03:00 +16°C° 0 mm 1 mps 748 mmHg 97%
04:00 +16°C° 0 mm 1 mps 748 mmHg 97%
05:00 +16°C° 0 mm 1 mps 747 mmHg 97%
06:00 +16°C° 0 mm 0 mps 747 mmHg 93%
07:00 +17°C° 0 mm 0 mps 747 mmHg 89%
08:00 +17°C° 0 mm 0 mps 747 mmHg 86%
09:00 +18°C° 0 mm 0 mps 747 mmHg 81%
10:00 +19°C° 0 mm 0 mps 747 mmHg 76%
11:00 +20°C° 0 mm 0 mps 747 mmHg 71%
12:00 +23°C° 0 mm 1 mps 747 mmHg 67%
13:00 +24°C° 0 mm 1 mps 747 mmHg 63%
14:00 +25°C° 0 mm 1 mps 747 mmHg 59%
15:00 +25°C° 0 mm 1 mps 746 mmHg 60%
16:00 +25°C° 0 mm 1 mps 746 mmHg 62%
17:00 +25°C° 0 mm 1 mps 746 mmHg 63%
18:00 +23°C° 0 mm 1 mps 746 mmHg 68%
19:00 +21°C° 0 mm 2 mps 745 mmHg 72%
20:00 +20°C° 0 mm 2 mps 745 mmHg 77%
21:00 +19°C° 0 mm 2 mps 745 mmHg 80%
22:00 +18°C° 0 mm 2 mps 744 mmHg 83%
23:00 +18°C° 0 mm 2 mps 744 mmHg 86%

6 August, Friday

Time Temperature Precipitation Wind Pressure Humidity
00:00 +18°C° 0.6 mm 2 mps 744 mmHg 88%
01:00 +17°C° 0.6 mm 2 mps 744 mmHg 91%
02:00 +17°C° 0.6 mm 2 mps 744 mmHg 94%
03:00 +17°C° 2.9 mm 2 mps 743 mmHg 95%
04:00 +17°C° 2.9 mm 3 mps 742 mmHg 96%
05:00 +17°C° 2.9 mm 3 mps 742 mmHg 98%
06:00 +18°C° 1.3 mm 3 mps 742 mmHg 97%
07:00 +18°C° 1.3 mm 3 mps 742 mmHg 96%
08:00 +18°C° 1.3 mm 3 mps 742 mmHg 96%
09:00 +18°C° 0.3 mm 3 mps 742 mmHg 96%
10:00 +18°C° 0.3 mm 2 mps 742 mmHg 96%
11:00 +19°C° 0.3 mm 2 mps 742 mmHg 96%
12:00 +19°C° 0.8 mm 2 mps 742 mmHg 96%
13:00 +19°C° 0.8 mm 2 mps 742 mmHg 96%
14:00 +19°C° 0.8 mm 2 mps 742 mmHg 96%
15:00 +19°C° 0.3 mm 2 mps 742 mmHg 95%
16:00 +19°C° 0.3 mm 2 mps 742 mmHg 93%
17:00 +20°C° 0.3 mm 2 mps 742 mmHg 92%
18:00 +19°C° 0 mm 2 mps 742 mmHg 93%
19:00 +19°C° 0 mm 2 mps 742 mmHg 94%
20:00 +18°C° 0 mm 2 mps 742 mmHg 96%
21:00 +18°C° 0.2 mm 2 mps 742 mmHg 96%
22:00 +17°C° 0.2 mm 2 mps 742 mmHg 97%
23:00 +17°C° 0.2 mm 2 mps 742 mmHg 97%
Show more

We Need Your Consent

Meteoprog and our Service Providers may store and access personal data such as cookies, device identifiers or other similar technologies on your device and process such data to personalise content and ads, as well as provide social media features and to analyse the traffic.

  • Store and/or access information on your device

    Cookies, device identifiers or other information can be stored or accessed on your device for the purposes indicated above.

  • Personalised ads and content, ad and content measurement, audience insights, and products development

    Ads and content can be personalised based on a profile. More data can be added to better personalise ads and content. Ad and content performance can be measured. Insights about the audience who saw the ads and content can be derived. Such data can be used to develop or improve user’s experience, systems and software.

By clicking ‘I Agree’ you will allow the use of indicated cookies, device identifiers, web beacons or other similar technologies. Your settings can be changed in the browser on your device.

For certain purposes, legitimate interests may be relied on, rather than consent. You can read more about this in our Privacy and Cookie Policy.